,,Stat6,,Stat2,,Stat8,,Stat9,,Stat10,,Wind1,,Wind1,
time,status,PA1M_AVG,status,PR1M_SUM,status,RH1M_AVG,status,SR1M_AVG,status,TA1M_AVG,status,W1dAve1m,status,W1sAve1m,
2008-06-01, 00:00:00,VALID,916.643,VALID,0,VALID,100,VALID,0.0339617,VALID,19.6629,VALID,82,VALID,0,
2008-06-01, 00:01:00,VALID,916.648,VALID,0,VALID,100,VALID,0,VALID,19.6432,VALID,75,VALID,0,
2008-06-01, 00:02:00,VALID,916.654,VALID,0,VALID,100,VALID,0.0169808,VALID,19.617,VALID,72,VALID,0,
2008-06-01, 00:03:00,VALID,916.668,VALID,0,VALID,100,VALID,0.0169808,VALID,19.6132,VALID,81,VALID,0,
2008-06-01, 00:04:00,VALID,916.669,VALID,0,VALID,100,VALID,0.0169808,VALID,19.6167,VALID,89,VALID,0,
2008-06-01, 00:05:00,VALID,916.669,VALID,0,VALID,100,VALID,0.0169808,VALID,19.6209,VALID,91,VALID,0,
2008-06-01, 00:06:00,VALID,916.679,VALID,0,VALID,100,VALID,0.0169808,VALID,19.607,VALID,90,VALID,0,
2008-06-01, 00:07:00,VALID,916.645,VALID,0,VALID,100,VALID,0.0339617,VALID,19.591,VALID,81,VALID,0,
2008-06-01, 00:08:00,VALID,916.647,VALID,0,VALID,100,VALID,-0.0679233,VALID,19.586,VALID,75,VALID,0,
2008-06-01, 00:09:00,VALID,916.641,VALID,0,VALID,100,VALID,-0.0339617,VALID,19.5598,VALID,74,VALID,0,
2008-06-01, 00:10:00,VALID,916.638,VALID,0,VALID,100,VALID,-0.101885,VALID,19.5401,VALID,81,VALID,0,
2008-06-01, 00:11:00,VALID,916.623,VALID,0,VALID,100,VALID,-0.101885,VALID,19.5506,VALID,113,VALID,0,
2008-06-01, 00:12:00,VALID,916.608,VALID,0,VALID,100,VALID,-0.0849042,VALID,19.5535,VALID,117,VALID,0,
2008-06-01, 00:13:00,VALID,916.58,VALID,0,VALID,100,VALID,-0.0849042,VALID,19.5862,VALID,115,VALID,0,
2008-06-01, 00:14:00,VALID,916.559,VALID,0,VALID,100,VALID,-0.0849042,VALID,19.5925,VALID,122,VALID,0,
2008-06-01, 00:15:00,VALID,916.541,VALID,0,VALID,100,VALID,-0.0849042,VALID,19.6022,VALID,124,VALID,0,
2008-06-01, 00:16:00,VALID,916.518,VALID,0,VALID,100,VALID,-0.0849042,VALID,19.6085,VALID,124,VALID,0,
2008-06-01, 00:17:00,VALID,916.51,VALID,0,VALID,100,VALID,-0.0509425,VALID,19.6122,VALID,119,VALID,0,
2008-06-01, 00:18:00,VALID,916.485,VALID,0,VALID,100,VALID,-0.101885,VALID,19.599,VALID,119,VALID,0,
2008-06-01, 00:19:00,VALID,916.462,VALID,0,VALID,100,VALID,-0.0849042,VALID,19.6057,VALID,121,VALID,0,
2008-06-01, 00:20:00,VALID,916.44,VALID,0,VALID,100,VALID,-0.0849042,VALID,19.6017,VALID,127,VALID,0,
2008-06-01, 00:21:00,VALID,916.423,VALID,0,VALID,100,VALID,-0.0849042,VALID,19.6154,VALID,142,VALID,0,
2008-06-01, 00:22:00,VALID,916.411,VALID,0,VALID,100,VALID,-0.0679233,VALID,19.6252,VALID,144,VALID,0,
2008-06-01, 00:23:00,VALID,916.404,VALID,0,VALID,100,VALID,-0.0339617,VALID,19.6214,VALID,150,VALID,0,
2008-06-01, 00:24:00,VALID,916.404,VALID,0,VALID,100,VALID,-0.101885,VALID,19.6312,VALID,149,VALID,0,
2008-06-01, 00:25:00,VALID,916.4,VALID,0,VALID,100,VALID,-0.101885,VALID,19.6344,VALID,140,VALID,0,
2008-06-01, 00:26:00,VALID,916.409,VALID,0,VALID,100,VALID,-0.0849042,VALID,19.6476,VALID,136,VALID,0,
2008-06-01, 00:27:00,VALID,916.395,VALID,0,VALID,100,VALID,-0.0849042,VALID,19.6347,VALID,129,VALID,0,
2008-06-01, 00:28:00,VALID,916.388,VALID,0,VALID,100,VALID,-0.135847,VALID,19.6446,VALID,118,VALID,0,
2008-06-01, 00:29:00,VALID,916.376,VALID,0,VALID,100,VALID,-0.0849042,VALID,19.6446,VALID,117,VALID,0,
2008-06-01, 00:30:00,VALID,916.375,VALID,0,VALID,100,VALID,-0.0679233,VALID,19.6506,VALID,118,VALID,0,
2008-06-01, 00:31:00,VALID,916.351,VALID,0,VALID,100,VALID,-0.0339617,VALID,19.6474,VALID,118,VALID,0.026456,
2008-06-01, 00:32:00,VALID,916.334,VALID,0,VALID,100,VALID,-0.0169808,VALID,19.6407,VALID,118,VALID,0,
2008-06-01, 00:33:00,VALID,916.33,VALID,0,VALID,100,VALID,-0.0509425,VALID,19.6374,VALID,118,VALID,0,
2008-06-01, 00:34:00,VALID,916.298,VALID,0,VALID,100,VALID,-0.0849042,VALID,19.6446,VALID,118,VALID,0,
2008-06-01, 00:35:00,VALID,916.288,VALID,0,VALID,100,VALID,-0.101885,VALID,19.6446,VALID,114,VALID,0.0776042,
2008-06-01, 00:36:00,VALID,916.274,VALID,0,VALID,100,VALID,-0.0849042,VALID,19.6344,VALID,117,VALID,0.327415,
2008-06-01, 00:37:00,VALID,916.252,VALID,0,VALID,100,VALID,-0.0849042,VALID,19.6282,VALID,113,VALID,0,
2008-06-01, 00:38:00,VALID,916.241,VALID,0,VALID,100,VALID,0,VALID,19.6272,VALID,108,VALID,0,
2008-06-01, 00:39:00,VALID,916.213,VALID,0,VALID,100,VALID,0,VALID,19.6135,VALID,108,VALID,0,
2008-06-01, 00:40:00,VALID,916.202,VALID,0,VALID,100,VALID,0.0169808,VALID,19.6137,VALID,108,VALID,0,
2008-06-01, 00:41:00,VALID,916.198,VALID,0,VALID,100,VALID,0.0169808,VALID,19.6007,VALID,108,VALID,0,
2008-06-01, 00:42:00,VALID,916.185,VALID,0,VALID,100,VALID,0,VALID,19.6037,VALID,108,VALID,0,
2008-06-01, 00:43:00,VALID,916.183,VALID,0,VALID,100,VALID,0.0339617,VALID,19.6107,VALID,236,VALID,0,
2008-06-01, 00:44:00,VALID,916.168,VALID,0,VALID,100,VALID,0.0169808,VALID,19.617,VALID,261,VALID,0,
2008-06-01, 00:45:00,VALID,916.151,VALID,0,VALID,100,VALID,0.0679233,VALID,19.6167,VALID,265,VALID,0,
2008-06-01, 00:46:00,VALID,916.136,VALID,0,VALID,100,VALID,0.0169808,VALID,19.6102,VALID,265,VALID,0,
2008-06-01, 00:47:00,VALID,916.119,VALID,0,VALID,100,VALID,0.0169808,VALID,19.6005,VALID,273,VALID,0,
2008-06-01, 00:48:00,VALID,916.107,VALID,0,VALID,100,VALID,0.0339617,VALID,19.584,VALID,276,VALID,0,
2008-06-01, 00:49:00,VALID,916.098,VALID,0,VALID,100,VALID,0.0679233,VALID,19.5843,VALID,276,VALID,0,
2008-06-01, 00:50:00,VALID,916.088,VALID,0,VALID,100,VALID,0.0169808,VALID,19.5775,VALID,276,VALID,0,
2008-06-01, 00:51:00,VALID,916.089,VALID,0,VALID,100,VALID,0.0509425,VALID,19.5608,VALID,276,VALID,0,
2008-06-01, 00:52:00,VALID,916.076,VALID,0,VALID,100,VALID,0.0339617,VALID,19.5583,VALID,276,VALID,0,
2008-06-01, 00:53:00,VALID,916.071,VALID,0,VALID,100,VALID,-0.0169808,VALID,19.5463,VALID,276,VALID,0,
2008-06-01, 00:54:00,VALID,916.046,VALID,0,VALID,100,VALID,-0.118866,VALID,19.5373,VALID,270,VALID,0,
2008-06-01, 00:55:00,VALID,916.016,VALID,0,VALID,100,VALID,-0.0849042,VALID,19.5338,VALID,269,VALID,0,
2008-06-01, 00:56:00,VALID,916.012,VALID,0,VALID,100,VALID,-0.101885,VALID,19.5176,VALID,269,VALID,0,
2008-06-01, 00:57:00,VALID,915.988,VALID,0,VALID,100,VALID,-0.0849042,VALID,19.5114,VALID,269,VALID,0,
2008-06-01, 00:58:00,VALID,915.96,VALID,0,VALID,100,VALID,-0.0849042,VALID,19.5079,VALID,269,VALID,0,
2008-06-01, 00:59:00,VALID,915.937,VALID,0,VALID,100,VALID,-0.0679233,VALID,19.4951,VALID,268,VALID,0,
2008-06-01, 01:00:00,VALID,915.92,VALID,0,VALID,100,VALID,-0.0849042,VALID,19.4657,VALID,204,VALID,0,
2008-06-01, 01:01:00,VALID,915.894,VALID,0,VALID,100,VALID,-0.101885,VALID,19.4472,VALID,190,VALID,0,
2008-06-01, 01:02:00,VALID,915.857,VALID,0,VALID,100,VALID,-0.101885,VALID,19.4335,VALID,159,VALID,0,
2008-06-01, 01:03:00,VALID,915.823,VALID,0,VALID,100,VALID,-0.0849042,VALID,19.4657,VALID,156,VALID,0,
2008-06-01, 01:04:00,VALID,915.783,VALID,0,VALID,100,VALID,-0.0849042,VALID,19.4719,VALID,156,VALID,0,
2008-06-01, 01:05:00,VALID,915.76,VALID,0,VALID,100,VALID,-0.0849042,VALID,19.4822,VALID,156,VALID,0,
2008-06-01, 01:06:00,VALID,915.746,VALID,0,VALID,100,VALID,-0.0849042,VALID,19.4657,VALID,157,VALID,0,
2008-06-01, 01:07:00,VALID,915.728,VALID,0,VALID,100,VALID,-0.0679233,VALID,19.4689,VALID,157,VALID,0,
2008-06-01, 01:08:00,VALID,915.709,VALID,0,VALID,100,VALID,-0.0849042,VALID,19.4625,VALID,158,VALID,0,
2008-06-01, 01:09:00,VALID,915.699,VALID,0,VALID,100,VALID,-0.0339617,VALID,19.4692,VALID,164,VALID,0,
2008-06-01, 01:10:00,VALID,915.691,VALID,0,VALID,100,VALID,-0.0339617,VALID,19.4719,VALID,175,VALID,0,
2008-06-01, 01:11:00,VALID,915.684,VALID,0,VALID,100,VALID,-0.0679233,VALID,19.4852,VALID,175,VALID,0,
2008-06-01, 01:12:00,VALID,915.682,VALID,0,VALID,100,VALID,-0.0169808,VALID,19.4949,VALID,181,VALID,0,
2008-06-01, 01:13:00,VALID,915.661,VALID,0,VALID,100,VALID,-0.0509425,VALID,19.4914,VALID,183,VALID,0,
2008-06-01, 01:14:00,VALID,915.635,VALID,0,VALID,100,VALID,-0.0679233,VALID,19.4852,VALID,187,VALID,0,
2008-06-01, 01:15:00,VALID,915.623,VALID,0.2,VALID,100,VALID,-0.101885,VALID,19.4689,VALID,220,VALID,0,
2008-06-01, 01:16:00,VALID,915.608,VALID,0,VALID,100,VALID,-0.0679233,VALID,19.4657,VALID,251,VALID,0,
2008-06-01, 01:17:00,VALID,915.586,VALID,0,VALID,100,VALID,-0.0679233,VALID,19.4592,VALID,255,VALID,0,
2008-06-01, 01:18:00,VALID,915.561,VALID,0,VALID,100,VALID,-0.0679233,VALID,19.446,VALID,259,VALID,0,
2008-06-01, 01:19:00,VALID,915.551,VALID,0,VALID,100,VALID,-0.101885,VALID,19.4527,VALID,260,VALID,0,
2008-06-01, 01:20:00,VALID,915.544,VALID,0,VALID,100,VALID,-0.0679233,VALID,19.4495,VALID,260,VALID,0,
2008-06-01, 01:21:00,VALID,915.536,VALID,0,VALID,100,VALID,-0.0679233,VALID,19.4397,VALID,260,VALID,0,
2008-06-01, 01:22:00,VALID,915.538,VALID,0,VALID,100,VALID,-0.0679233,VALID,19.4268,VALID,260,VALID,0,
2008-06-01, 01:23:00,VALID,915.537,VALID,0,VALID,100,VALID,0,VALID,19.4031,VALID,260,VALID,0,
2008-06-01, 01:24:00,VALID,915.522,VALID,0,VALID,100,VALID,0,VALID,19.3734,VALID,260,VALID,0,
2008-06-01, 01:25:00,VALID,915.522,VALID,0,VALID,100,VALID,0.0339617,VALID,19.3604,VALID,260,VALID,0,
2008-06-01, 01:26:00,VALID,915.508,VALID,0,VALID,100,VALID,0.0169808,VALID,19.3377,VALID,260,VALID,0,
2008-06-01, 01:27:00,VALID,915.51,VALID,0,VALID,100,VALID,0.0509425,VALID,19.2728,VALID,260,VALID,0,
2008-06-01, 01:28:00,VALID,915.491,VALID,0,VALID,100,VALID,0.0169808,VALID,19.2015,VALID,12,VALID,0,
2008-06-01, 01:29:00,VALID,915.493,VALID,0,VALID,100,VALID,0.0169808,VALID,19.182,VALID,67,VALID,0,
2008-06-01, 01:30:00,VALID,915.481,VALID,0,VALID,100,VALID,0,VALID,19.179,VALID,66,VALID,0,
2008-06-01, 01:31:00,VALID,915.468,VALID,0,VALID,100,VALID,0.0509425,VALID,19.179,VALID,66,VALID,0,
2008-06-01, 01:32:00,VALID,915.48,VALID,0,VALID,100,VALID,0.0169808,VALID,19.205,VALID,66,VALID,0,
2008-06-01, 01:33:00,VALID,915.483,VALID,0,VALID,100,VALID,0.0509425,VALID,19.2239,VALID,66,VALID,0,
2008-06-01, 01:34:00,VALID,915.499,VALID,0,VALID,100,VALID,0.0679233,VALID,19.2337,VALID,66,VALID,0,
2008-06-01, 01:35:00,VALID,915.503,VALID,0,VALID,100,VALID,0.0849042,VALID,19.2526,VALID,66,VALID,0,
2008-06-01, 01:36:00,VALID,915.523,VALID,0,VALID,100,VALID,0.0339617,VALID,19.2955,VALID,66,VALID,0,
2008-06-01, 01:37:00,VALID,915.531,VALID,0,VALID,100,VALID,0.0169808,VALID,19.2758,VALID,70,VALID,0,
2008-06-01, 01:38:00,VALID,915.543,VALID,0,VALID,100,VALID,0,VALID,19.2506,VALID,75,VALID,0,
2008-06-01, 01:39:00,VALID,915.542,VALID,0,VALID,100,VALID,-0.0339617,VALID,19.2511,VALID,80,VALID,0,
2008-06-01, 01:40:00,VALID,915.555,VALID,0,VALID,100,VALID,-0.0509425,VALID,19.2386,VALID,99,VALID,0,
2008-06-01, 01:41:00,VALID,915.539,VALID,0,VALID,100,VALID,-0.0509425,VALID,19.2189,VALID,106,VALID,0,
2008-06-01, 01:42:00,VALID,915.538,VALID,0,VALID,100,VALID,-0.0339617,VALID,19.1962,VALID,122,VALID,0,
2008-06-01, 01:43:00,VALID,915.538,VALID,0,VALID,100,VALID,-0.0679233,VALID,19.1802,VALID,129,VALID,0,
2008-06-01, 01:44:00,VALID,915.514,VALID,0,VALID,100,VALID,-0.0169808,VALID,19.1932,VALID,131,VALID,0,
2008-06-01, 01:45:00,VALID,915.504,VALID,0,VALID,100,VALID,-0.0339617,VALID,19.2122,VALID,148,VALID,0,
2008-06-01, 01:46:00,VALID,915.492,VALID,0,VALID,100,VALID,-0.0679233,VALID,19.2321,VALID,142,VALID,0,
2008-06-01, 01:47:00,VALID,915.479,VALID,0,VALID,100,VALID,-0.0849042,VALID,19.2191,VALID,142,VALID,0,
2008-06-01, 01:48:00,VALID,915.477,VALID,0,VALID,100,VALID,-0.0849042,VALID,19.2062,VALID,137,VALID,0,
2008-06-01, 01:49:00,VALID,915.461,VALID,0,VALID,100,VALID,-0.101885,VALID,19.2094,VALID,131,VALID,0,
2008-06-01, 01:50:00,VALID,915.452,VALID,0,VALID,100,VALID,-0.0509425,VALID,19.2062,VALID,132,VALID,0,
2008-06-01, 01:51:00,VALID,915.445,VALID,0,VALID,100,VALID,-0.0169808,VALID,19.2157,VALID,126,VALID,0,
2008-06-01, 01:52:00,VALID,915.454,VALID,0,VALID,100,VALID,-0.0509425,VALID,19.2191,VALID,126,VALID,0,
2008-06-01, 01:53:00,VALID,915.459,VALID,0,VALID,100,VALID,-0.0339617,VALID,19.2092,VALID,138,VALID,0,
2008-06-01, 01:54:00,VALID,915.471,VALID,0,VALID,100,VALID,-0.0169808,VALID,19.1832,VALID,143,VALID,0.00509511,
2008-06-01, 01:55:00,VALID,915.472,VALID,0,VALID,100,VALID,-0.0509425,VALID,19.1929,VALID,126,VALID,0.294331,
2008-06-01, 01:56:00,VALID,915.473,VALID,0,VALID,100,VALID,-0.0679233,VALID,19.1964,VALID,150,VALID,0.871875,
2008-06-01, 01:57:00,VALID,915.473,VALID,0,VALID,100,VALID,-0.0849042,VALID,19.2127,VALID,141,VALID,0.974787,
2008-06-01, 01:58:00,VALID,915.468,VALID,0,VALID,100,VALID,-0.0509425,VALID,19.2321,VALID,142,VALID,1.10902,
2008-06-01, 01:59:00,VALID,915.469,VALID,0,VALID,100,VALID,-0.0169808,VALID,19.2513,VALID,132,VALID,0.880145,
2008-06-01, 02:00:00,VALID,915.457,VALID,0,VALID,100,VALID,-0.0509425,VALID,19.2479,VALID,128,VALID,1.02474,
2008-06-01, 02:01:00,VALID,915.457,VALID,0,VALID,100,VALID,-0.0169808,VALID,19.2546,VALID,133,VALID,1.33296,
2008-06-01, 02:02:00,VALID,915.461,VALID,0,VALID,100,VALID,-0.0339617,VALID,19.2513,VALID,129,VALID,1.05185,
2008-06-01, 02:03:00,VALID,915.469,VALID,0,VALID,100,VALID,-0.0339617,VALID,19.2611,VALID,137,VALID,1.47874,
2008-06-01, 02:04:00,VALID,915.465,VALID,0,VALID,100,VALID,0,VALID,19.2608,VALID,134,VALID,1.46719,
2008-06-01, 02:05:00,VALID,915.467,VALID,0,VALID,100,VALID,-0.0169808,VALID,19.2671,VALID,138,VALID,1.31345,
2008-06-01, 02:06:00,VALID,915.457,VALID,0,VALID,100,VALID,-0.0169808,VALID,19.2743,VALID,136,VALID,1.31231,
2008-06-01, 02:07:00,VALID,915.467,VALID,0,VALID,100,VALID,-0.0339617,VALID,19.2775,VALID,143,VALID,1.15011,
2008-06-01, 02:08:00,VALID,915.465,VALID,0,VALID,100,VALID,-0.0339617,VALID,19.2865,VALID,138,VALID,1.06759,
2008-06-01, 02:09:00,VALID,915.46,VALID,0,VALID,100,VALID,-0.0169808,VALID,19.297,VALID,139,VALID,1.18984,
2008-06-01, 02:10:00,VALID,915.448,VALID,0,VALID,100,VALID,-0.0679233,VALID,19.3002,VALID,135,VALID,1.14844,
2008-06-01, 02:11:00,VALID,915.452,VALID,0,VALID,100,VALID,-0.0509425,VALID,19.2868,VALID,144,VALID,1.04597,
2008-06-01, 02:12:00,VALID,915.46,VALID,0,VALID,100,VALID,-0.0679233,VALID,19.31,VALID,140,VALID,1.64379,
2008-06-01, 02:13:00,VALID,915.46,VALID,0,VALID,100,VALID,-0.0509425,VALID,19.2998,VALID,142,VALID,1.23733,
2008-06-01, 02:14:00,VALID,915.465,VALID,0,VALID,100,VALID,-0.0849042,VALID,19.3232,VALID,145,VALID,1.19379,
2008-06-01, 02:15:00,VALID,915.462,VALID,0,VALID,100,VALID,-0.0169808,VALID,19.3257,VALID,147,VALID,1.38398,
2008-06-01, 02:16:00,VALID,915.462,VALID,0,VALID,100,VALID,-0.0339617,VALID,19.3162,VALID,131,VALID,0.915206,
2008-06-01, 02:17:00,VALID,915.465,VALID,0,VALID,100,VALID,-0.0169808,VALID,19.3192,VALID,139,VALID,1.39971,
2008-06-01, 02:18:00,VALID,915.458,VALID,0,VALID,100,VALID,-0.0339617,VALID,19.3162,VALID,133,VALID,1.28693,
2008-06-01, 02:19:00,VALID,915.451,VALID,0,VALID,100,VALID,-0.0509425,VALID,19.3162,VALID,138,VALID,1.27725,
2008-06-01, 02:20:00,VALID,915.453,VALID,0,VALID,100,VALID,-0.0339617,VALID,19.3195,VALID,137,VALID,1.3487,
2008-06-01, 02:21:00,VALID,915.437,VALID,0,VALID,100,VALID,-0.0339617,VALID,19.326,VALID,142,VALID,1.50093,
2008-06-01, 02:22:00,VALID,915.426,VALID,0,VALID,100,VALID,-0.0509425,VALID,19.3359,VALID,139,VALID,1.42051,
2008-06-01, 02:23:00,VALID,915.431,VALID,0,VALID,100,VALID,-0.0849042,VALID,19.3269,VALID,149,VALID,1.10777,
2008-06-01, 02:24:00,VALID,915.404,VALID,0,VALID,100,VALID,-0.152827,VALID,19.3309,VALID,144,VALID,0.909446,
2008-06-01, 02:25:00,VALID,915.383,VALID,0,VALID,100,VALID,-0.118866,VALID,19.3204,VALID,161,VALID,1.23086,
2008-06-01, 02:26:00,VALID,915.371,VALID,0,VALID,100,VALID,-0.135847,VALID,19.3307,VALID,139,VALID,1.63681,
2008-06-01, 02:27:00,VALID,915.354,VALID,0,VALID,100,VALID,-0.152827,VALID,19.3339,VALID,144,VALID,1.07751,
2008-06-01, 02:28:00,VALID,915.343,VALID,0,VALID,100,VALID,-0.135847,VALID,19.3274,VALID,123,VALID,1.25353,
2008-06-01, 02:29:00,VALID,915.333,VALID,0,VALID,100,VALID,-0.135847,VALID,19.3012,VALID,125,VALID,1.14626,
2008-06-01, 02:30:00,VALID,915.328,VALID,0,VALID,100,VALID,-0.118866,VALID,19.282,VALID,137,VALID,1.72257,
2008-06-01, 02:31:00,VALID,915.317,VALID,0,VALID,100,VALID,-0.152827,VALID,19.2887,VALID,124,VALID,1.0558,
2008-06-01, 02:32:00,VALID,915.296,VALID,0,VALID,100,VALID,-0.152827,VALID,19.2758,VALID,123,VALID,1.21426,
2008-06-01, 02:33:00,VALID,915.306,VALID,0,VALID,100,VALID,-0.152827,VALID,19.253,VALID,112,VALID,0.956676,
2008-06-01, 02:34:00,VALID,915.297,VALID,0,VALID,100,VALID,-0.169808,VALID,19.2398,VALID,113,VALID,0.588663,
2008-06-01, 02:35:00,VALID,915.285,VALID,0,VALID,100,VALID,-0.169808,VALID,19.2401,VALID,119,VALID,0.44401,
2008-06-01, 02:36:00,VALID,915.271,VALID,0,VALID,100,VALID,-0.118866,VALID,19.2303,VALID,109,VALID,0.0115234,
2008-06-01, 02:37:00,VALID,915.266,VALID,0,VALID,100,VALID,-0.135847,VALID,19.2171,VALID,124,VALID,0,
2008-06-01, 02:38:00,VALID,915.249,VALID,0,VALID,100,VALID,-0.0169808,VALID,19.2217,VALID,112,VALID,0,
2008-06-01, 02:39:00,VALID,915.246,VALID,0,VALID,100,VALID,0.0169808,VALID,19.2242,VALID,125,VALID,0.770833,
2008-06-01, 02:40:00,VALID,915.242,VALID,0,VALID,100,VALID,0.0679233,VALID,19.2269,VALID,125,VALID,0.602965,
2008-06-01, 02:41:00,VALID,915.23,VALID,0,VALID,100,VALID,0.0849042,VALID,19.2242,VALID,122,VALID,0.332031,
2008-06-01, 02:42:00,VALID,915.228,VALID,0,VALID,100,VALID,0.0169808,VALID,19.2077,VALID,110,VALID,0.66282,
2008-06-01, 02:43:00,VALID,915.209,VALID,0,VALID,100,VALID,0.0849042,VALID,19.2207,VALID,127,VALID,0.693314,
2008-06-01, 02:44:00,VALID,915.208,VALID,0,VALID,100,VALID,0.0679233,VALID,19.2274,VALID,117,VALID,0.493555,
2008-06-01, 02:45:00,VALID,915.197,VALID,0,VALID,100,VALID,0.0679233,VALID,19.2237,VALID,122,VALID,0,
2008-06-01, 02:46:00,VALID,915.172,VALID,0,VALID,100,VALID,0.0849042,VALID,19.2269,VALID,120,VALID,0,
2008-06-01, 02:47:00,VALID,915.171,VALID,0,VALID,100,VALID,0.0509425,VALID,19.2269,VALID,108,VALID,0,
2008-06-01, 02:48:00,VALID,915.166,VALID,0,VALID,100,VALID,0.0169808,VALID,19.2307,VALID,115,VALID,0,
2008-06-01, 02:49:00,VALID,915.15,VALID,0,VALID,100,VALID,0.0509425,VALID,19.2174,VALID,123,VALID,0,
2008-06-01, 02:50:00,VALID,915.132,VALID,0,VALID,100,VALID,0.0169808,VALID,19.2242,VALID,122,VALID,0,
2008-06-01, 02:51:00,VALID,915.122,VALID,0,VALID,100,VALID,0.0169808,VALID,19.2072,VALID,111,VALID,0,
2008-06-01, 02:52:00,VALID,915.115,VALID,0,VALID,100,VALID,0.0679233,VALID,19.2007,VALID,118,VALID,0,
2008-06-01, 02:53:00,VALID,915.107,VALID,0,VALID,100,VALID,0.0849042,VALID,19.2012,VALID,127,VALID,0,
2008-06-01, 02:54:00,VALID,915.092,VALID,0,VALID,100,VALID,0.0679233,VALID,19.2077,VALID,142,VALID,0,
2008-06-01, 02:55:00,VALID,915.08,VALID,0,VALID,100,VALID,0.0339617,VALID,19.214,VALID,144,VALID,0,
2008-06-01, 02:56:00,VALID,915.073,VALID,0,VALID,100,VALID,0.0509425,VALID,19.2272,VALID,143,VALID,0,
2008-06-01, 02:57:00,VALID,915.081,VALID,0,VALID,100,VALID,0.0509425,VALID,19.2274,VALID,143,VALID,0,
2008-06-01, 02:58:00,VALID,915.08,VALID,0,VALID,100,VALID,0.0169808,VALID,19.2042,VALID,143,VALID,0,
2008-06-01, 02:59:00,VALID,915.075,VALID,0,VALID,100,VALID,0.0339617,VALID,19.2047,VALID,143,VALID,0,
2008-06-01, 03:00:00,VALID,915.08,VALID,0,VALID,100,VALID,0.0679233,VALID,19.1982,VALID,143,VALID,0,
2008-06-01, 03:01:00,VALID,915.085,VALID,0,VALID,100,VALID,0,VALID,19.1688,VALID,143,VALID,0,
2008-06-01, 03:02:00,VALID,915.088,VALID,0,VALID,100,VALID,0,VALID,19.1426,VALID,142,VALID,0,
2008-06-01, 03:03:00,VALID,915.084,VALID,0,VALID,100,VALID,0.0169808,VALID,19.075,VALID,142,VALID,0,
2008-06-01, 03:04:00,VALID,915.078,VALID,0,VALID,100,VALID,0.0509425,VALID,19.0226,VALID,141,VALID,0,
2008-06-01, 03:05:00,VALID,915.075,VALID,0,VALID,100,VALID,0.0679233,VALID,18.9936,VALID,135,VALID,0,
2008-06-01, 03:06:00,VALID,915.064,VALID,0,VALID,100,VALID,0.0169808,VALID,18.9936,VALID,135,VALID,0,
2008-06-01, 03:07:00,VALID,915.077,VALID,0,VALID,100,VALID,0.0339617,VALID,18.9869,VALID,125,VALID,0,
2008-06-01, 03:08:00,VALID,915.079,VALID,0,VALID,100,VALID,-0.0339617,VALID,18.9459,VALID,122,VALID,0,
2008-06-01, 03:09:00,VALID,915.069,VALID,0,VALID,100,VALID,-0.0679233,VALID,18.9012,VALID,120,VALID,0,
2008-06-01, 03:10:00,VALID,915.067,VALID,0,VALID,100,VALID,-0.0849042,VALID,18.882,VALID,120,VALID,0,
2008-06-01, 03:11:00,VALID,915.053,VALID,0,VALID,100,VALID,-0.101885,VALID,18.8915,VALID,115,VALID,0,
2008-06-01, 03:12:00,VALID,915.055,VALID,0,VALID,100,VALID,-0.0679233,VALID,18.8915,VALID,89,VALID,0,
2008-06-01, 03:13:00,VALID,915.04,VALID,0,VALID,100,VALID,-0.0679233,VALID,18.8651,VALID,78,VALID,0,
2008-06-01, 03:14:00,VALID,915.031,VALID,0,VALID,100,VALID,-0.0339617,VALID,18.8718,VALID,81,VALID,0,
2008-06-01, 03:15:00,VALID,915.029,VALID,0,VALID,100,VALID,-0.0679233,VALID,18.8621,VALID,91,VALID,0,
2008-06-01, 03:16:00,VALID,915.021,VALID,0,VALID,100,VALID,-0.0509425,VALID,18.8618,VALID,98,VALID,0,
2008-06-01, 03:17:00,VALID,915,VALID,0,VALID,100,VALID,-0.0679233,VALID,18.875,VALID,107,VALID,0,
2008-06-01, 03:18:00,VALID,914.986,VALID,0,VALID,100,VALID,-0.0509425,VALID,18.8783,VALID,106,VALID,0,
2008-06-01, 03:19:00,VALID,914.965,VALID,0,VALID,100,VALID,0,VALID,18.8806,VALID,106,VALID,0,
2008-06-01, 03:20:00,VALID,914.976,VALID,0,VALID,100,VALID,-0.0339617,VALID,18.8978,VALID,105,VALID,0,
2008-06-01, 03:21:00,VALID,914.957,VALID,0,VALID,100,VALID,-0.0169808,VALID,18.8716,VALID,107,VALID,0,
2008-06-01, 03:22:00,VALID,914.956,VALID,0,VALID,100,VALID,0,VALID,18.8713,VALID,115,VALID,0,
2008-06-01, 03:23:00,VALID,914.954,VALID,0,VALID,100,VALID,-0.0339617,VALID,18.8553,VALID,119,VALID,0,
2008-06-01, 03:24:00,VALID,914.964,VALID,0,VALID,100,VALID,-0.0169808,VALID,18.9,VALID,107,VALID,0,
2008-06-01, 03:25:01,VALID,914.962,VALID,0,VALID,100,VALID,-0.0169808,VALID,18.9424,VALID,95,VALID,0.244851,
2008-06-01, 03:26:01,VALID,914.971,VALID,0,VALID,100,VALID,-0.0509425,VALID,18.9033,VALID,106,VALID,0.800604,
2008-06-01, 03:27:00,VALID,914.98,VALID,0,VALID,100,VALID,-0.0169808,VALID,18.8905,VALID,126,VALID,1.18503,
2008-06-01, 03:28:00,VALID,914.982,VALID,0,VALID,100,VALID,-0.0339617,VALID,18.9265,VALID,132,VALID,1.32133,
2008-06-01, 03:29:00,VALID,914.986,VALID,0,VALID,100,VALID,0,VALID,18.9394,VALID,134,VALID,1.19495,
2008-06-01, 03:30:00,VALID,914.989,VALID,0,VALID,100,VALID,0,VALID,18.9589,VALID,138,VALID,1.34466,
2008-06-01, 03:31:00,VALID,914.984,VALID,0,VALID,100,VALID,0,VALID,18.9582,VALID,140,VALID,0.816778,
2008-06-01, 03:32:00,VALID,914.991,VALID,0,VALID,100,VALID,-0.0339617,VALID,18.9552,VALID,156,VALID,0.720465,
2008-06-01, 03:33:00,VALID,914.994,VALID,0,VALID,100,VALID,-0.0169808,VALID,18.9584,VALID,154,VALID,1.23197,
2008-06-01, 03:34:00,VALID,915.013,VALID,0,VALID,100,VALID,-0.0339617,VALID,18.9874,VALID,152,VALID,1.50167,
2008-06-01, 03:35:00,VALID,915.032,VALID,0,VALID,100,VALID,-0.0339617,VALID,19.0178,VALID,151,VALID,1.27035,
2008-06-01, 03:36:00,VALID,915.036,VALID,0,VALID,100,VALID,0,VALID,19.0265,VALID,154,VALID,1.82376,
2008-06-01, 03:37:00,VALID,915.042,VALID,0,VALID,100,VALID,-0.0169808,VALID,19.0492,VALID,160,VALID,1.55208,
2008-06-01, 03:38:00,VALID,915.05,VALID,0,VALID,100,VALID,-0.0509425,VALID,19.046,VALID,145,VALID,1.52401,
2008-06-01, 03:39:00,VALID,915.041,VALID,0,VALID,100,VALID,-0.0509425,VALID,19.0792,VALID,136,VALID,1.27557,
2008-06-01, 03:40:01,VALID,915.03,VALID,0,VALID,100,VALID,-0.0679233,VALID,19.0659,VALID,138,VALID,1.74293,
2008-06-01, 03:41:01,VALID,914.999,VALID,0,VALID,100,VALID,-0.0679233,VALID,19.0732,VALID,139,VALID,1.12919,
2008-06-01, 03:42:00,VALID,914.984,VALID,0,VALID,100,VALID,-0.0339617,VALID,19.05,VALID,138,VALID,1.41477,
2008-06-01, 03:43:00,VALID,914.97,VALID,0,VALID,100,VALID,-0.0509425,VALID,19.0664,VALID,138,VALID,1.55564,
2008-06-01, 03:44:00,VALID,914.951,VALID,0,VALID,100,VALID,-0.0509425,VALID,19.0762,VALID,138,VALID,1.30022,
2008-06-01, 03:45:00,VALID,914.941,VALID,0,VALID,100,VALID,-0.0509425,VALID,19.0597,VALID,140,VALID,1.09482,
2008-06-01, 03:46:01,VALID,914.946,VALID,0,VALID,100,VALID,-0.0849042,VALID,19.0599,VALID,137,VALID,1.51581,